Preview of NWS' New Version of Forecast
This preview is not operational and should not be used for support decisions.

Regional Weather Roundup (RWR)

Issued by Gray - Portland, ME (GYX)

                            
000
ASUS41 KGYX 260410
RWRGYX
WEATHER ROUNDUP FOR MAINE AND NEW HAMPSHIRE
NATIONAL WEATHER SERVICE GRAY ME
1200 AM EDT MON AUG 26 2019

MEZ002-005-006-010-012-015-018-020-021-024-026-027-029-260500-
MAINE
  
CITY           SKY/WX    TMP DP  RH WIND       PRES   REMARKS
PORTLAND       FAIR      53  48  83 W3        30.32S                  
SANFORD        FAIR      48  47  96 CALM      30.31F                  
BAR HARBOR     FAIR      51  50  96 CALM      30.32F                  
WISCASSET      FAIR      48  45  89 CALM      30.34S                  
ROCKLAND       FAIR      49  48  97 CALM      30.31F                  
FRYEBURG       FAIR      47  46  97 CALM      30.33F FOG              
LEWISTONAUBURN FAIR      52  50  93 N3        30.33F                  
AUGUSTA        FAIR      54  51  90 NW5       30.34S                  
WATERVILLE     FAIR      52  51  97 CALM      30.31S                  
BANGOR         FAIR      55  52  89 CALM      30.32F                  
GREENVILLE       N/A     55  47  74 NE3       30.32F                  
MILLINOCKET    FAIR      52  50  93 CALM      30.34S                  
HOULTON        FAIR      49  46  90 CALM      30.32S                  
PRESQUE ISLE   FAIR      49  48  97 CALM      30.34R                  
FRENCHVILLE    FAIR      55  45  68 CALM      30.33R                  
CARIBOU        FAIR      55  51  86 CALM      30.32R                  
$$

NHZ002-005-008-009-011-012-014-260500-
NEW HAMPSHIRE
  
CITY           SKY/WX    TMP DP  RH WIND       PRES   REMARKS
PORTSMOUTH     CLEAR     55  50  84 N8        30.28F                  
ROCHESTER      FAIR      50  48  93 NW7       30.30F                  
NASHUA         FAIR      49  49 100 NW7       30.31F                  
MANCHESTER     FAIR      56  49  77 N5        30.29F                  
CONCORD        FAIR      50  47  89 CALM      30.31F                  
LACONIA        FAIR      52  50  93 CALM      30.33F                  
PLYMOUTH       FAIR      48  47  96 CALM      30.33F                  
BERLIN         NOT AVBL                                               
WHITEFIELD     FAIR      44  41  89 CALM      30.32F                  
JAFFREY        FAIR      50  45  83 CALM      30.32F                  
KEENE          FAIR      48  47  96 SE3       30.32F                  
LEBANON        FAIR      51  45  79 CALM      30.32F                  
MT WASHINGTON  CLEAR     45  16  31 E13         N/A                   
$$

VTZ005-007-008-260500-
VERMONT
  
CITY           SKY/WX    TMP DP  RH WIND       PRES   REMARKS
ST JOHNSBURY     N/A     51  48  89 MISG      30.31S                  
MONTPELIER     FAIR      49  47  93 CALM      30.35F                  
BURLINGTON     FAIR      59  53  80 CALM      30.28S                  
$$

MAZ007-012-024-CTZ003-RIZ002-NYZ038-NYZ072-260500-
SOUTHERN NEW ENGLAND AND NY
  
CITY           SKY/WX    TMP DP  RH WIND       PRES   REMARKS
BOSTON         FAIR      60  53  77 N7        30.28F                  
WORCESTER      FAIR      52  47  83 N8        30.29F                  
NANTUCKET      FAIR      60  56  86 NE13      30.21F                  
PROVIDENCE     CLOUDY    62  56  80 NE12      30.26F                  
HARTFORD       FAIR      53  47  79 N5        30.29S                  
ALBANY         FAIR      60  48  64 S3        30.29R                  
NEW YORK CITY  FAIR      67  53  61 NE17      30.23R                  
$$

ANZ081-ANZ082-ANZ150-NHZ014-MEZ023>029-260500-
COASTAL MARINE OBSERVATIONS
  
STATION/POSITION TIME  TEMP    WIND        PRES    WAVE
                       AIR SEA DIR/SP/G            HT/PER
                 (UTC) (F)     (DEG/KT/KT) (MB)    (FT/S)
MATINICUS ROCK   0350   57                 1025.7F
ISLE OF SHOALS   0300   62      30/ 11/ 12 1025.6F
JEFFREYS LEDGE   0338      67                N/A     5/ 7
CASHES LEDGE BUO 0350   62 62   60/ 10/ 10 1025.9F   4/ 7
GEORGES BANK BUO 0350   64 63   10/ 14/ 16 1020.1F   6/ 8
$$

.............KEY..............
   WCI - WIND CHILL
   TC  - TEMPERATURE IN CELSIUS
   VSB - VISIBILITY IN MILES
   HX  - HEAT INDEX
   FAIR- INDICATES FEW OR NO CLOUDS BELOW 12,000 FT, WITH NO 
         SIGNIFICANT WEATHER AND/OR OBSTRUCTIONS TO VISIBILITY.